Weather in Krasnoyarka

Russia / Altai Krai     52°13′35″N   83°28′29″E
temp.,
°C
wind,
m/s
gust,
m/s
humid.,
%
clouds,
%
prec.,
mm/h
press.,
hPa
HPBL,
m
25 october, mon
mon2501:00+9sw7165091 0.0 1026570
04:00+9sw71548100 0.0 1025587
07:00+9sw5144873 0.0 1024532
10:00+8sw5135386 0.0 1023563
13:00+13sw7113986 0.0 1022881
16:00+13wsw6113966 0.0 1020859
19:00+9wsw4125194 0.0 1021297
22:00+7sw375980 0.0 1021126
26 october, tue
tue2601:00+6ssw226129 0.0 102023
04:00+6sse2264100 0.0 101910
07:00+6ese3371100 0.0 101725
10:00+8se2266100 0.0 101451
13:00+13sw51243100 0.0 1012746
16:00+16sw9152871 0.0 1010969
19:00+13wsw8173368 0.0 1010643
22:00+12sw9183824 0.0 1012908
27 october, wed
wed2701:00+8w61150100 0.0 1016392
04:00+5wnw5879100 0.1 1021782
07:00+5wnw3569100 0.9 1024874
10:00+4nw3463100 0.1 1026536
13:00+5wnw3455100 0.1 1027977
16:00+5w3449100 0.0 10261150
19:00+3wnw345463 0.0 102765
22:00+1wnw225230 0.0 102813
28 october, thu
thu2801:000wsw115279 0.0 102910
04:00−1w1152100 0.0 102910
07:00−1s0053100 0.0 102910
10:00+1sse0155100 0.0 103088
13:00+3s1157100 0.0 1029429
16:00+5s12565 0.0 1028663
19:00+2se11725 0.0 102810
22:00+2s128097 0.0 102711
29 october, fri
fri2901:00+4s238193 0.0 102651
04:00+3s3591100 0.0 102485
07:00+2s228960 0.0 102425
10:00+4ssw21280100 0.0 1023468
13:00+9wsw91658100 0.0 10231246
16:00+9sw91554100 0.0 10231341
19:00+8sw81658100 0.0 10241032
22:00+8sw81640100 0.0 1024918